From 08/03/2022 00:00 to 08/20/2022 00:00

Date LAKE ELEVATION [FT] PRECIPITATION INCREMENT [IN] PRECIPITATION TOTAL [IN] AIR TEMPERATURE [F] RELATIVE HUMIDITY [%] RELEASE [CFS]
08/18/2022 00:00 -- -- -- -- -- 0.0
08/17/2022 23:00 115.33 0.00 -- 66.0 -- 0.0
08/17/2022 22:00 115.32 0.00 -- 66.0 -- 0.0
08/17/2022 21:00 115.32 0.00 -- 66.0 -- 0.0
08/17/2022 20:00 115.32 0.00 -- 67.0 -- 0.0
08/17/2022 19:00 115.33 0.00 -- 67.0 -- 0.0
08/17/2022 18:00 115.32 0.00 -- 66.0 -- 0.0
08/17/2022 17:00 115.32 0.00 -- 67.0 -- 0.0
08/17/2022 16:00 115.32 0.00 -- 67.0 -- 0.0
08/17/2022 15:00 115.33 0.00 -- 67.0 -- 0.0
08/17/2022 14:00 115.33 0.00 -- 70.0 -- 0.0
08/17/2022 13:00 115.32 0.00 -- 72.0 -- 0.0
08/17/2022 12:00 115.33 0.00 -- 72.0 -- 0.0
08/17/2022 11:00 115.33 0.00 -- 71.0 -- 0.0
08/17/2022 10:00 115.32 0.00 -- 69.0 -- 0.0
08/17/2022 09:00 115.33 0.00 -- 67.0 -- 0.0
08/17/2022 08:00 115.33 0.00 -- 66.0 -- 0.0
08/17/2022 07:00 115.33 0.00 -- 65.0 -- 0.0
08/17/2022 06:00 115.33 0.00 -- 65.0 -- 0.0
08/17/2022 05:00 115.33 0.00 -- 65.0 -- 0.0
08/17/2022 04:00 115.33 0.00 -- 65.0 -- 0.0
08/17/2022 03:00 115.33 0.00 -- 66.0 -- 0.0
08/17/2022 02:00 115.33 0.00 -- 66.0 -- 0.0
08/17/2022 01:00 115.33 0.00 -- 66.0 -- 0.0
08/17/2022 00:00 115.33 0.00 -- 66.0 -- 0.0
08/16/2022 23:00 115.33 0.00 -- 67.0 -- 0.0
08/16/2022 22:00 115.33 0.00 -- 67.0 -- 0.0
08/16/2022 21:00 115.33 0.00 -- 69.0 -- 0.0
08/16/2022 20:00 115.33 0.00 -- 71.0 -- 0.0
08/16/2022 19:00 115.33 0.00 -- 73.0 -- 0.0
08/16/2022 18:00 115.33 0.00 -- 76.0 -- 0.0
08/16/2022 17:00 115.33 0.00 -- 78.0 -- 0.0
08/16/2022 16:00 115.33 0.00 -- 79.0 -- 0.0
08/16/2022 15:00 115.33 0.00 -- 79.0 -- 0.0
08/16/2022 14:00 115.34 0.00 -- 78.0 -- 0.0
08/16/2022 13:00 115.34 0.00 -- 77.0 -- 0.0
08/16/2022 12:00 115.34 0.00 -- 77.0 -- 0.0
08/16/2022 11:00 115.35 0.00 -- 74.0 -- 0.0
08/16/2022 10:00 115.35 0.00 -- 70.0 -- 0.0
08/16/2022 09:00 115.34 0.00 -- 66.0 -- 0.0
08/16/2022 08:00 115.35 0.00 -- 58.0 -- 0.0
08/16/2022 07:00 115.35 0.00 -- 56.0 -- 0.0
08/16/2022 06:00 115.35 0.00 -- 58.0 -- 0.0
08/16/2022 05:00 115.35 0.00 -- 59.0 -- 0.0
08/16/2022 04:00 115.35 0.00 -- 59.0 -- 0.0
08/16/2022 03:00 115.35 0.00 -- 59.0 -- 0.0
08/16/2022 02:00 115.35 0.00 -- 61.0 -- 0.0
08/16/2022 01:00 115.35 0.00 -- 63.0 -- 0.0
08/16/2022 00:00 115.35 0.00 0.00 65.0 -- 0.0
08/15/2022 23:00 115.35 0.00 -- 66.0 -- 0.0
08/15/2022 22:00 115.35 0.00 -- 68.0 -- 0.0
08/15/2022 21:00 115.35 0.00 -- 70.0 -- 0.0
08/15/2022 20:00 115.35 0.00 -- 73.0 -- 0.0
08/15/2022 19:00 115.34 0.00 -- 78.0 -- 0.0
08/15/2022 18:00 115.35 0.00 -- 78.0 -- 0.0
08/15/2022 17:00 115.35 0.00 -- 80.0 -- 0.0
08/15/2022 16:00 115.36 0.00 -- 80.0 -- 0.0
08/15/2022 15:00 115.36 0.00 -- 80.0 -- 0.0
08/15/2022 14:00 115.36 0.00 -- 79.0 -- 0.0
08/15/2022 13:00 115.36 0.00 -- 78.0 -- 0.0
08/15/2022 12:00 115.36 0.00 -- 77.0 -- 0.0
08/15/2022 11:00 115.36 0.00 -- 75.0 -- 0.0
08/15/2022 10:00 115.36 0.00 -- 71.0 -- 0.0
08/15/2022 09:00 115.37 0.00 -- 64.0 -- 0.0
08/15/2022 08:00 115.37 0.00 -- 55.0 -- 0.0
08/15/2022 07:00 115.37 0.00 -- 55.0 -- 0.0
08/15/2022 06:00 115.37 0.00 -- 55.0 -- 0.0
08/15/2022 05:00 115.37 0.00 -- 56.0 -- 0.0
08/15/2022 04:00 115.37 0.00 -- 57.0 -- 0.0
08/15/2022 03:00 115.37 0.00 -- 58.0 -- 0.0
08/15/2022 02:00 115.37 0.00 -- 60.0 -- 0.0
08/15/2022 01:00 115.37 0.00 -- 61.0 -- 0.0
08/15/2022 00:00 115.37 0.00 0.00 63.0 -- 0.0
08/14/2022 23:00 115.37 0.00 -- 64.0 -- 0.0
08/14/2022 22:00 115.37 0.00 -- 68.0 -- 0.0
08/14/2022 21:00 115.37 0.00 -- 72.0 -- 0.0
08/14/2022 20:00 115.37 0.00 -- 77.0 -- 0.0
08/14/2022 19:00 115.36 0.00 -- 80.0 -- 0.0
08/14/2022 18:00 115.38 0.00 -- 82.0 -- 0.0
08/14/2022 17:00 115.38 0.00 -- 78.0 -- 0.0
08/14/2022 16:00 115.39 0.00 -- 81.0 -- 0.0
08/14/2022 15:00 115.38 0.00 -- 80.0 -- 0.0
08/14/2022 14:00 115.39 0.00 -- 78.0 -- 0.0
08/14/2022 13:00 115.38 0.00 -- 77.0 -- 0.0
08/14/2022 12:00 115.39 0.00 -- 74.0 -- 0.0
08/14/2022 11:00 115.38 0.00 -- 71.0 -- 0.0
08/14/2022 10:00 115.39 0.00 -- 68.0 -- 0.0
08/14/2022 09:00 115.38 0.00 -- 65.0 -- 0.0
08/14/2022 08:00 115.39 0.00 -- 57.0 -- 0.0
08/14/2022 07:00 115.38 0.00 -- 55.0 -- 0.0
08/14/2022 06:00 115.39 0.00 -- 57.0 -- 0.0
08/14/2022 05:00 115.39 0.00 -- 58.0 -- 0.0
08/14/2022 04:00 115.39 0.00 -- 60.0 -- 0.0
08/14/2022 03:00 115.39 0.00 -- 59.0 -- 0.0
08/14/2022 02:00 115.39 0.00 -- 61.0 -- 0.0
08/14/2022 01:00 115.39 0.00 -- 61.0 -- 0.0
08/14/2022 00:00 115.39 0.00 0.00 61.0 -- 0.0
08/13/2022 23:00 115.39 0.00 -- 62.0 -- 0.0
08/13/2022 22:00 115.39 0.00 -- 63.0 -- 0.0
08/13/2022 21:00 115.39 0.00 -- 67.0 -- 0.0
08/13/2022 20:00 115.39 0.00 -- 70.0 -- 0.0
08/13/2022 19:00 115.39 0.00 -- 72.0 -- 0.0
08/13/2022 18:00 115.39 0.00 -- 73.0 -- 0.0
08/13/2022 17:00 115.39 0.00 -- 74.0 -- 0.0
08/13/2022 16:00 115.40 0.00 -- 75.0 -- 0.0
08/13/2022 15:00 115.40 0.00 -- 74.0 -- 0.0
08/13/2022 14:00 115.40 0.00 -- 74.0 -- 0.0
08/13/2022 13:00 115.41 0.00 -- 73.0 -- 0.0
08/13/2022 12:00 115.41 0.00 -- 71.0 -- 0.0
08/13/2022 11:00 115.40 0.00 -- 69.0 -- 0.0
08/13/2022 10:00 115.40 0.00 -- 63.0 -- 0.0
08/13/2022 09:00 115.41 0.00 -- 60.0 -- 0.0
08/13/2022 08:00 115.41 0.00 -- 58.0 -- 0.0
08/13/2022 07:00 115.41 0.00 -- 58.0 -- 0.0
08/13/2022 06:00 115.41 0.00 -- 59.0 -- 0.0
08/13/2022 05:00 115.41 0.00 -- 60.0 -- 0.0
08/13/2022 04:00 115.41 0.00 -- 61.0 -- 0.0
08/13/2022 03:00 115.42 0.00 -- 62.0 -- 0.0
08/13/2022 02:00 115.42 0.00 -- 63.0 -- 0.0
08/13/2022 01:00 115.41 0.00 -- 64.0 -- 0.0
08/13/2022 00:00 115.42 0.00 0.00 65.0 -- 0.0
08/12/2022 23:00 115.42 0.00 -- 66.0 -- 0.0
08/12/2022 22:00 115.42 0.00 -- 66.0 -- 0.0
08/12/2022 21:00 115.42 0.00 -- 68.0 -- 0.0
08/12/2022 20:00 115.42 0.00 -- 71.0 -- 0.0
08/12/2022 19:00 115.43 0.00 -- 75.0 -- 0.0
08/12/2022 18:00 115.44 0.00 -- 77.0 -- 0.0
08/12/2022 17:00 115.43 0.00 -- 77.0 -- 0.0
08/12/2022 16:00 115.43 0.00 -- 77.0 -- 0.0
08/12/2022 15:00 115.43 0.00 -- 77.0 -- 0.0
08/12/2022 14:00 115.44 0.00 -- 76.0 -- 0.0
08/12/2022 13:00 115.44 0.00 -- 74.0 -- 0.0
08/12/2022 12:00 115.44 0.00 -- 73.0 -- 0.0
08/12/2022 11:00 115.44 0.00 -- 71.0 -- 0.0
08/12/2022 10:00 115.44 0.00 -- 70.0 -- 0.0
08/12/2022 09:00 115.43 0.00 -- 67.0 -- 0.0
08/12/2022 08:00 115.43 0.00 -- 65.0 -- 0.0
08/12/2022 07:00 115.43 0.00 -- 64.0 -- 0.0
08/12/2022 06:00 115.44 0.00 -- 64.0 -- 0.0
08/12/2022 05:00 115.43 0.00 -- 64.0 -- 0.0
08/12/2022 04:00 115.43 0.00 -- 66.0 -- 0.0
08/12/2022 03:00 115.43 0.00 -- 68.0 -- 0.0
08/12/2022 02:00 115.44 0.00 -- 68.0 -- 0.0
08/12/2022 01:00 115.44 0.00 -- 68.0 -- 0.0
08/12/2022 00:00 115.43 0.00 0.00 69.0 -- 0.0
08/11/2022 23:00 115.44 0.00 -- 69.0 -- 0.0
08/11/2022 22:00 115.43 0.00 -- 71.0 -- 0.0
08/11/2022 21:00 115.43 0.00 -- 74.0 -- 0.0
08/11/2022 20:00 115.43 0.00 -- 77.0 -- 0.0
08/11/2022 19:00 115.43 0.00 -- 77.0 -- 0.0
08/11/2022 18:00 115.43 0.00 -- 77.0 -- 0.0
08/11/2022 17:00 115.43 0.00 -- 77.0 -- 0.0
08/11/2022 16:00 115.44 0.00 -- 78.0 -- 0.0
08/11/2022 15:00 115.43 0.00 -- 77.0 -- 0.0
08/11/2022 14:00 115.43 0.00 -- 76.0 -- 0.0
08/11/2022 13:00 115.44 0.00 -- 75.0 -- 0.0
08/11/2022 12:00 115.44 0.00 -- 74.0 -- 0.0
08/11/2022 11:00 115.44 0.00 -- 72.0 -- 0.0
08/11/2022 10:00 115.44 0.00 -- 70.0 -- 0.0
08/11/2022 09:00 115.44 0.00 -- 68.0 -- 0.0
08/11/2022 08:00 115.44 0.00 -- 67.0 -- 0.0
08/11/2022 07:00 115.44 0.00 -- 66.0 -- 0.0
08/11/2022 06:00 115.44 0.00 -- 66.0 -- 0.0
08/11/2022 05:00 115.44 0.00 -- 66.0 -- 0.0
08/11/2022 04:00 115.44 0.00 -- 66.0 -- 0.0
08/11/2022 03:00 115.44 0.00 -- 65.0 -- 0.0
08/11/2022 02:00 115.44 0.00 -- 65.0 -- 0.0
08/11/2022 01:00 115.44 0.00 -- 65.0 -- 0.0
08/11/2022 00:00 115.44 0.00 0.00 65.0 -- 0.0
08/10/2022 23:00 115.44 0.00 -- 65.0 -- 0.0
08/10/2022 22:00 115.44 0.00 -- 67.0 -- 0.0
08/10/2022 21:00 115.44 0.00 -- 67.0 -- 0.0
08/10/2022 20:00 115.44 0.00 -- 69.0 -- 0.0
08/10/2022 19:00 115.44 0.00 -- 70.0 -- 0.0
08/10/2022 18:00 115.44 0.00 -- 70.0 -- 0.0
08/10/2022 17:00 115.44 0.00 -- 72.0 -- 0.0
08/10/2022 16:00 115.44 0.00 -- 74.0 -- 0.0
08/10/2022 15:00 115.44 0.00 -- 75.0 -- 0.0
08/10/2022 14:00 115.45 0.00 -- 72.0 -- 0.0
08/10/2022 13:00 115.45 0.00 -- 71.0 -- 0.0
08/10/2022 12:00 115.45 0.00 -- 69.0 -- 0.0
08/10/2022 11:00 115.45 0.00 -- 68.0 -- 0.0
08/10/2022 10:00 115.45 0.00 -- 67.0 -- 0.0
08/10/2022 09:00 115.45 0.00 -- 67.0 -- 0.0
08/10/2022 08:00 115.45 0.00 -- 66.0 -- 0.0
08/10/2022 07:00 115.45 0.00 -- 65.0 -- 0.0
08/10/2022 06:00 115.45 0.00 -- 66.0 -- 0.0
08/10/2022 05:00 115.45 0.00 -- 66.0 -- 0.0
08/10/2022 04:00 115.45 0.00 -- 66.0 -- 0.0
08/10/2022 03:00 115.45 0.00 -- 67.0 -- 0.0
08/10/2022 02:00 115.45 0.00 -- 67.0 -- 0.0
08/10/2022 01:00 115.45 0.00 -- 68.0 -- 0.0
08/10/2022 00:00 115.45 0.00 0.00 68.0 -- 0.0
08/09/2022 23:00 115.45 0.00 -- 68.0 -- 0.0
08/09/2022 22:00 115.45 0.00 -- 69.0 -- 0.0
08/09/2022 21:00 115.45 0.00 -- 70.0 -- 0.0
08/09/2022 20:00 115.45 0.00 -- 72.0 -- 0.0
08/09/2022 19:00 115.45 0.00 -- 83.0 -- 0.0
08/09/2022 18:00 115.46 0.00 -- 87.0 -- 0.0
08/09/2022 17:00 115.46 0.00 -- 87.0 -- 0.0
08/09/2022 16:00 115.45 0.00 -- 87.0 -- 0.0
08/09/2022 15:00 115.46 0.00 -- 89.0 -- 0.0
08/09/2022 14:00 115.46 0.00 -- 90.0 -- 0.0
08/09/2022 13:00 115.46 0.00 -- 88.0 -- 0.0
08/09/2022 12:00 115.45 0.01 -- 85.0 -- 0.0
08/09/2022 11:00 115.46 0.00 -- 84.0 -- 0.0
08/09/2022 10:00 115.46 0.00 -- 84.0 -- 0.0
08/09/2022 09:00 115.44 0.00 -- 80.0 -- 0.0
08/09/2022 08:00 115.45 0.00 -- 79.0 -- 0.0
08/09/2022 07:00 115.45 0.00 -- 79.0 -- 0.0
08/09/2022 06:00 115.45 0.00 -- 79.0 -- 0.0
08/09/2022 05:00 115.45 0.00 -- 78.0 -- 0.0
08/09/2022 04:00 115.45 0.00 -- 77.0 -- 0.0
08/09/2022 03:00 115.45 0.00 -- 77.0 -- 0.0
08/09/2022 02:00 115.45 0.00 -- 77.0 -- 0.0
08/09/2022 01:00 115.45 0.01 -- 78.0 -- 0.0
08/09/2022 00:00 115.45 0.00 0.02 82.0 -- 0.0
08/08/2022 23:00 115.45 0.00 -- 83.0 -- 0.0
08/08/2022 22:00 115.45 0.00 -- 85.0 -- 0.0
08/08/2022 21:00 115.46 0.00 -- 87.0 -- 0.0
08/08/2022 20:00 115.45 0.00 -- 90.0 -- 0.0
08/08/2022 19:00 115.46 0.00 -- 92.0 -- 0.0
08/08/2022 18:00 115.46 0.00 -- 95.0 -- 0.0
08/08/2022 17:00 115.46 0.00 -- 94.0 -- 0.0
08/08/2022 16:00 115.47 0.00 -- 94.0 -- 0.0
08/08/2022 15:00 115.46 0.00 -- 91.0 -- 0.0
08/08/2022 14:00 115.46 0.00 -- 92.0 -- 0.0
08/08/2022 13:00 115.47 0.00 -- 90.0 -- 0.0
08/08/2022 12:00 115.46 0.00 -- 88.0 -- 0.0
08/08/2022 11:00 115.47 0.00 -- 85.0 -- 0.0
08/08/2022 10:00 115.47 0.00 -- 82.0 -- 0.0
08/08/2022 09:00 115.47 0.00 -- 80.0 -- 0.0
08/08/2022 08:00 115.47 0.00 -- 74.0 -- 0.0
08/08/2022 07:00 115.47 0.00 -- 74.0 -- 0.0
08/08/2022 06:00 115.47 0.00 -- 75.0 -- 0.0
08/08/2022 05:00 115.47 0.00 -- 75.0 -- 0.0
08/08/2022 04:00 115.47 0.00 -- 76.0 -- 0.0
08/08/2022 03:00 115.47 0.00 -- 76.0 -- 0.0
08/08/2022 02:00 115.47 0.00 -- 76.0 -- 0.0
08/08/2022 01:00 115.47 0.00 -- 76.0 -- 0.0
08/08/2022 00:00 115.47 0.00 0.00 77.0 -- 0.0
08/07/2022 23:00 115.47 0.00 -- 77.0 -- 0.0
08/07/2022 22:00 115.47 0.00 -- 78.0 -- 0.0
08/07/2022 21:00 115.47 0.00 -- 80.0 -- 0.0
08/07/2022 20:00 115.47 0.00 -- 81.0 -- 0.0
08/07/2022 19:00 115.48 0.00 -- 83.0 -- 0.0
08/07/2022 18:00 115.47 0.01 -- 78.0 -- 0.0
08/07/2022 17:00 115.47 0.05 -- 79.0 -- 0.0
08/07/2022 16:00 115.46 0.46 -- 76.0 -- 0.0
08/07/2022 15:00 115.44 0.00 -- 92.0 -- 0.0
08/07/2022 14:00 115.44 0.00 -- 90.0 -- 0.0
08/07/2022 13:00 115.45 0.00 -- 90.0 -- 0.0
08/07/2022 12:00 115.45 0.00 -- 88.0 -- 0.0
08/07/2022 11:00 115.45 0.00 -- 86.0 -- 0.0
08/07/2022 10:00 115.46 0.00 -- 83.0 -- 0.0
08/07/2022 09:00 115.44 0.00 -- 80.0 -- 0.0
08/07/2022 08:00 115.44 0.00 -- 77.0 -- 0.0
08/07/2022 07:00 115.44 0.00 -- 76.0 -- 0.0
08/07/2022 06:00 115.45 0.00 -- 76.0 -- 0.0
08/07/2022 05:00 115.45 0.00 -- 77.0 -- 0.0
08/07/2022 04:00 115.45 0.00 -- 78.0 -- 0.0
08/07/2022 03:00 115.45 0.00 -- 79.0 -- 0.0
08/07/2022 02:00 115.45 0.00 -- 80.0 -- 0.0
08/07/2022 01:00 115.45 0.00 -- 81.0 -- 0.0
08/07/2022 00:00 115.45 0.00 0.52 81.0 -- 0.0
08/06/2022 23:00 115.45 0.00 -- 79.0 -- 0.0
08/06/2022 22:00 115.45 0.00 -- 79.0 -- 0.0
08/06/2022 21:00 115.45 0.00 -- 81.0 -- 0.0
08/06/2022 20:00 115.45 0.00 -- 85.0 -- 0.0
08/06/2022 19:00 115.46 0.00 -- 90.0 -- 0.0
08/06/2022 18:00 115.45 0.00 -- 89.0 -- 0.0
08/06/2022 17:00 115.45 0.04 -- 85.0 -- 0.0
08/06/2022 16:00 115.45 0.00 -- 86.0 -- 0.0
08/06/2022 15:00 115.44 0.00 -- 88.0 -- 0.0
08/06/2022 14:00 115.45 0.00 -- 91.0 -- 0.0
08/06/2022 13:00 115.45 0.00 -- 89.0 -- 0.0
08/06/2022 12:00 115.45 0.00 -- 87.0 -- 0.0
08/06/2022 11:00 115.45 0.00 -- 84.0 -- 0.0
08/06/2022 10:00 115.46 0.00 -- 81.0 -- 0.0
08/06/2022 09:00 115.46 0.00 -- 78.0 -- 0.0
08/06/2022 08:00 115.46 0.00 -- 72.0 -- 0.0
08/06/2022 07:00 115.46 0.00 -- 71.0 -- 0.0
08/06/2022 06:00 115.46 0.00 -- 71.0 -- 0.0
08/06/2022 05:00 115.46 0.00 -- 72.0 -- 0.0
08/06/2022 04:00 115.46 0.00 -- 73.0 -- 0.0
08/06/2022 03:00 115.46 0.00 -- 74.0 -- 0.0
08/06/2022 02:00 115.46 0.00 -- 75.0 -- 0.0
08/06/2022 01:00 115.46 0.00 -- 75.0 -- 0.0
08/06/2022 00:00 115.46 0.00 0.04 76.0 -- 0.0
08/05/2022 23:00 115.46 0.00 -- 77.0 -- 0.0
08/05/2022 22:00 115.46 0.00 -- 78.0 -- 0.0
08/05/2022 21:00 115.46 0.00 -- 81.0 -- 0.0
08/05/2022 20:00 115.46 0.00 -- 84.0 -- 0.0
08/05/2022 19:00 115.47 0.00 -- 87.0 -- 0.0
08/05/2022 18:00 115.46 0.00 -- 85.0 -- 0.0
08/05/2022 17:00 115.47 0.00 -- 87.0 -- 0.0
08/05/2022 16:00 115.47 0.00 -- 86.0 -- 0.0
08/05/2022 15:00 115.47 0.00 -- 89.0 -- 0.0
08/05/2022 14:00 115.47 0.00 -- 88.0 -- 0.0
08/05/2022 13:00 115.47 0.00 -- 86.0 -- 0.0
08/05/2022 12:00 115.48 0.00 -- 84.0 -- 0.0
08/05/2022 11:00 115.48 0.00 -- 82.0 -- 0.0
08/05/2022 10:00 115.47 0.00 -- 79.0 -- 0.0
08/05/2022 09:00 115.48 0.00 -- 79.0 -- 0.0
08/05/2022 08:00 115.47 0.00 -- 73.0 -- 0.0
08/05/2022 07:00 115.47 0.00 -- 71.0 -- 0.0
08/05/2022 06:00 115.48 0.00 -- 71.0 -- 0.0
08/05/2022 05:00 115.48 0.00 -- 72.0 -- 0.0
08/05/2022 04:00 115.48 0.00 -- 73.0 -- 0.0
08/05/2022 03:00 115.48 0.00 -- 74.0 -- 0.0
08/05/2022 02:00 115.47 0.00 -- 75.0 -- 0.0
08/05/2022 01:00 115.48 0.00 -- 77.0 -- 0.0
08/05/2022 00:00 115.48 0.00 0.00 79.0 -- 0.0
08/04/2022 23:00 115.49 0.00 -- 85.0 -- 0.0
08/04/2022 22:00 115.48 0.00 -- 84.0 -- 0.0
08/04/2022 21:00 115.48 0.00 -- 87.0 -- 0.0
08/04/2022 20:00 115.48 0.00 -- 92.0 -- 0.0
08/04/2022 19:00 115.49 0.00 -- 96.0 -- 0.0
08/04/2022 18:00 115.49 0.00 -- 97.0 -- 0.0
08/04/2022 17:00 115.49 0.00 -- 96.0 -- 0.0
08/04/2022 16:00 115.50 0.00 -- 95.0 -- 0.0
08/04/2022 15:00 115.49 0.00 -- 94.0 -- 0.0
08/04/2022 14:00 115.49 0.00 -- 91.0 -- 0.0
08/04/2022 13:00 115.50 0.00 -- 88.0 -- 0.0
08/04/2022 12:00 115.48 0.00 -- 86.0 -- 0.0
08/04/2022 11:00 115.49 0.00 -- 82.0 -- 0.0
08/04/2022 10:00 115.49 0.00 -- 79.0 -- 0.0
08/04/2022 09:00 115.49 0.00 -- 75.0 -- 0.0
08/04/2022 08:00 115.49 0.00 -- 67.0 -- 0.0
08/04/2022 07:00 115.50 0.00 -- 65.0 -- 0.0
08/04/2022 06:00 115.50 0.00 -- 65.0 -- 0.0
08/04/2022 05:00 115.50 0.00 -- 66.0 -- 0.0
08/04/2022 04:00 115.50 0.00 -- 66.0 -- 0.0
08/04/2022 03:00 115.50 0.00 -- 66.0 -- 0.0
08/04/2022 02:00 115.50 0.00 -- 66.0 -- 0.0
08/04/2022 01:00 115.50 0.00 -- 67.0 -- 0.0
08/04/2022 00:00 115.50 0.00 0.00 69.0 -- 0.0
08/03/2022 23:00 -- -- -- -- -- --
08/03/2022 22:00 -- -- -- -- -- --
08/03/2022 21:00 -- -- -- -- -- --
08/03/2022 20:00 -- -- -- -- -- --
08/03/2022 19:00 -- -- -- -- -- --
08/03/2022 18:00 -- -- -- -- -- --
08/03/2022 17:00 -- -- -- -- -- --
08/03/2022 16:00 -- -- -- -- -- --
08/03/2022 15:00 -- -- -- -- -- --
08/03/2022 14:00 -- -- -- -- -- --
08/03/2022 13:00 -- -- -- -- -- --
08/03/2022 12:00 -- -- -- -- -- --
08/03/2022 11:00 -- -- -- -- -- --
08/03/2022 10:00 -- -- -- -- -- --
08/03/2022 09:00 -- -- -- -- -- --
08/03/2022 08:00 -- -- -- -- -- --
08/03/2022 07:00 -- -- -- -- -- --
08/03/2022 06:00 -- -- -- -- -- --
08/03/2022 05:00 -- -- -- -- -- --
08/03/2022 04:00 -- -- -- -- -- --
08/03/2022 03:00 -- -- -- -- -- --
08/03/2022 02:00 -- -- -- -- -- --
08/03/2022 01:00 -- -- -- -- -- --
08/03/2022 00:00 -- -- -- -- -- --